Wetbulb
56.29 55.41 55.57 55.85 55.54 55.59 55.84 55.95 55.69 55.33 55.27 55.56 55.56 55.51 55.71 55.39 53.04 43.64 39.69 46.98 50.23 56.92 57.47 46.77 42.58 41.17 41.40 41.37 44.83 43.71 35.16 31.49 34.11 35.18 36.36 37.29 36.17 37.36 36.59 35.18 36.53 37.91 38.47 39.08 40.51
56.44 55.95 55.42 55.70 55.50 55.54 55.59 55.84 55.64 55.36 55.11 55.37 55.38 55.36 55.33 54.90 45.35 38.71 47.18 54.63 55.00 56.58 46.04 41.13 39.40 39.80 37.86 39.08 41.63 40.03 32.97 33.92 35.94 35.81 34.85 34.25 33.46 33.65 33.95 32.59 32.30 33.66 37.00 38.40 38.75
56.16 55.89 55.72 55.88 55.60 55.53 55.47 55.48 55.61 55.36 55.09 55.08 55.14 55.14 54.93 50.36 39.87 36.90 51.17 54.54 55.10 52.99 47.07 42.87 42.98 40.30 37.54 38.79 37.80 36.79 33.11 34.98 34.46 34.65 34.18 33.11 31.22 32.72 29.17 29.61 31.99 31.71 34.05 36.48 36.22
56.52 56.12 55.51 55.48 55.67 55.71 55.41 55.23 55.49 55.32 54.86 54.86 54.86 54.68 54.90 41.38 29.88 39.64 52.81 53.59 54.08 47.88 45.31 41.35 39.55 35.73 35.33 34.89 35.66 32.73 34.56 33.41 35.82 36.03 34.00 31.70 31.92 30.62 31.67 33.37 33.87 33.46 34.70 34.31 35.29
56.47 56.01 55.72 55.38 55.43 55.66 55.48 54.98 55.19 54.89 54.59 54.72 54.58 54.41 43.20 33.81 33.95 43.31 50.93 48.57 45.68 45.17 42.21 40.31 37.56 35.52 34.06 33.37 33.53 31.38 31.49 33.98 34.07 34.36 33.33 34.23 32.41 31.76 32.02 34.51 35.01 35.08 35.23 34.89 35.67
57.04 56.14 55.79 55.50 55.34 55.44 55.37 54.87 54.80 54.61 54.41 54.53 54.28 52.73 39.00 29.54 41.52 43.29 44.01 44.59 43.35 42.06 40.36 39.98 38.38 37.70 34.06 31.78 30.65 31.64 32.08 31.67 32.37 32.54 32.39 31.64 29.90 29.94 32.13 32.72 32.67 34.40 33.75 33.70 34.22
57.05 56.27 55.82 55.66 55.52 55.16 54.89 54.58 54.63 54.79 54.94 54.38 54.02 46.36 36.25 33.25 40.95 42.19 43.83 41.71 42.49 41.43 38.80 40.33 40.91 37.00 34.90 31.50 33.45 32.30 28.51 28.79 30.06 31.60 30.42 30.40 27.27 27.39 30.09 31.92 32.63 33.15 32.50 32.97 34.03
56.75 56.08 55.90 55.72 55.68 55.20 54.61 54.34 54.64 54.96 54.82 54.10 53.32 41.13 34.37 41.31 40.04 42.22 42.75 41.44 43.13 42.78 41.53 41.54 41.19 37.63 34.60 34.70 31.34 27.11 26.48 24.04 26.86 30.16 30.26 29.00 24.57 28.80 30.05 30.32 30.72 31.05 31.13 32.40 33.57
56.66 55.98 55.90 56.04 55.97 55.41 54.55 54.53 54.94 53.24 53.48 52.82 40.69 37.32 33.25 46.05 39.56 40.96 41.36 39.30 40.81 40.80 41.21 43.51 37.86 31.91 32.28 28.80 25.81 25.19 22.85 21.67 25.59 28.86 27.89 26.68 24.64 29.01 30.73 29.96 30.50 30.16 30.70 31.65 33.31
57.09 56.35 56.26 56.11 55.79 55.14 54.45 52.95 53.48 49.30 47.82 44.49 41.67 34.11 37.44 35.09 38.85 40.38 40.32 41.22 38.97 38.05 37.32 35.78 30.81 26.82 25.28 25.41 22.65 23.42 22.21 22.81 20.92 24.90 25.62 23.91 24.98 29.59 28.70 30.59 30.69 30.62 30.80 29.90 34.98
56.07 56.94 56.49 55.99 55.58 54.29 47.65 41.84 37.83 38.06 39.18 36.25 34.93 35.10 36.57 39.50 40.91 38.89 40.04 39.16 37.73 34.59 27.50 30.77 27.57 24.63 24.83 26.07 26.52 25.26 23.25 21.08 22.41 26.28 24.60 20.77 22.60 27.90 29.82 30.08 30.49 29.84 29.91 32.10 35.81
54.55 55.53 56.61 55.60 54.60 51.36 43.67 39.20 39.90 40.18 33.17 38.30 37.48 37.77 38.58 39.02 34.58 36.20 40.16 34.06 32.82 27.97 28.82 27.99 24.88 26.77 29.94 29.34 27.85 26.09 22.69 21.24 24.50 25.71 24.94 23.32 25.15 28.32 28.64 29.94 29.71 31.10 32.29 33.90 33.56
54.07 53.87 56.18 54.63 52.73 44.99 41.83 40.81 45.24 43.01 31.67 36.19 37.97 36.92 36.71 38.13 33.38 33.17 36.91 33.96 29.81 28.33 27.17 25.99 26.02 30.35 27.75 26.93 26.03 23.68 22.78 21.97 21.99 25.08 25.07 24.62 23.30 25.29 28.66 29.64 31.91 31.81 33.82 34.17 32.24
52.60 53.38 54.77 52.87 44.97 43.08 39.46 44.43 44.50 43.61 29.06 33.06 33.54 36.78 37.98 37.99 32.09 38.10 37.46 34.17 30.80 27.52 27.73 26.20 28.21 27.57 26.38 26.28 26.07 23.93 25.80 25.13 24.13 22.00 15.93 25.06 13.85 23.35 25.67 28.35 30.08 31.82 32.40 31.27 31.38
51.87 52.96 54.27 50.29 45.70 41.32 43.09 45.74 43.73 40.52 24.96 34.82 33.69 40.93 38.49 34.11 33.31 33.62 37.04 33.33 28.53 27.81 27.70 25.93 25.36 25.57 25.87 26.80 26.69 24.15 26.47 25.62 24.82 21.60 20.40 21.21 15.10 21.76 24.41 26.51 28.27 29.49 31.38 31.27 30.50
50.86 51.55 52.59 47.04 45.99 44.14 44.86 44.58 45.17 33.34 25.26 28.93 34.01 32.88 32.62 33.62 32.30 34.00 33.50 35.03 32.42 28.65 27.33 25.31 27.65 26.35 26.28 27.39 26.88 28.04 25.63 24.66 22.87 22.20 7.60 18.60 18.26 19.35 22.34 26.19 26.33 27.91 30.38 30.02 29.89
49.72 51.04 51.62 48.52 44.81 45.76 44.30 42.18 32.31 26.91 32.04 28.82 27.57 31.88 30.62 29.64 30.19 31.13 28.61 26.46 25.17 22.69 22.88 25.04 25.37 26.24 27.33 25.10 27.07 25.86 20.05 7.73 9.90 6.67 10.64 19.52 18.52 22.52 25.20 27.05 28.20 29.17 29.62 28.05 28.39
48.58 51.25 49.03 46.80 46.57 45.52 45.01 35.29 26.72 32.54 26.74 30.79 29.98 30.19 27.55 28.83 28.83 28.53 26.77 24.03 25.72 25.37 21.71 20.99 19.90 25.43 27.33 24.37 23.82 25.40 19.79 12.02 9.08 8.07 11.11 19.53 13.99 22.18 26.65 27.49 28.26 30.01 28.60 27.80 27.23
47.53 46.10 44.66 44.32 45.38 44.46 40.78 31.17 26.49 33.86 34.33 28.69 28.85 27.18 26.14 27.85 27.24 27.50 25.56 25.35 27.37 26.56 24.95 20.17 21.41 25.43 26.69 27.42 26.78 23.57 16.33 21.77 7.65 5.57 6.49 14.11 19.22 24.56 26.28 25.01 28.37 28.76 25.96 25.76 26.24
42.01 42.74 42.88 44.22 44.24 43.59 34.02 34.46 33.72 35.37 31.93 30.83 26.50 27.00 22.12 24.32 24.70 26.18 25.29 27.87 27.90 28.14 27.28 24.93 19.16 24.39 25.98 28.07 28.16 25.82 25.17 16.96 11.77 8.92 6.11 11.29 12.99 18.23 24.21 24.31 25.70 26.77 25.55 25.13 26.32
40.60 38.14 41.40 43.77 43.99 36.99 32.15 33.06 34.75 35.27 34.11 32.48 26.57 28.46 29.78 25.86 25.06 23.98 26.10 28.50 29.62 27.49 27.26 24.86 24.08 21.12 23.95 21.93 22.42 22.30 18.03 16.32 17.48 14.60 7.10 2.15 14.65 21.12 23.62 24.83 23.16 25.70 25.88 24.28 25.25
38.87 32.07 40.96 41.91 32.90 32.04 32.17 33.41 36.83 31.54 33.90 31.89 33.69 33.50 32.76 31.19 26.10 24.49 24.95 27.10 31.13 29.51 25.51 27.23 24.44 18.68 21.26 21.97 24.79 24.84 22.49 18.35 12.98 11.30 10.27 8.17 14.16 26.00 24.34 24.82 25.21 25.43 26.00 24.72 26.05
33.19 35.37 40.92 39.15 29.39 31.20 32.09 32.59 33.21 30.37 30.83 31.74 32.60 34.16 31.79 30.21 29.96 26.42 26.63 30.70 30.65 28.25 26.40 27.47 19.73 15.21 20.91 21.93 23.22 21.92 23.40 20.89 12.09 10.95 10.47 7.00 17.13 25.41 25.33 25.73 26.17 24.76 24.96 24.67 25.56
33.04 28.38 32.59 34.60 33.94 30.29 31.84 30.32 27.55 33.45 32.45 34.73 32.44 32.04 29.31 27.78 29.80 27.61 26.43 29.50 30.74 29.58 32.84 29.90 20.99 20.36 23.60 23.10 21.41 19.08 21.51 20.81 14.89 7.35 8.39 14.12 17.91 28.28 29.26 23.15 24.32 24.04 23.57 22.65 23.32
32.47 27.75 31.44 26.57 28.95 31.68 33.34 30.24 29.81 24.77 32.31 32.79 29.26 30.88 30.08 26.36 26.01 25.61 27.57 27.16 29.54 32.41 28.22 25.69 17.00 17.55 18.79 19.29 19.53 21.02 20.70 20.30 16.61 14.42 16.61 25.47 15.53 25.16 20.91 18.72 19.81 19.07 22.33 23.12 23.72
28.09 28.96 31.45 28.94 28.41 29.91 32.08 32.17 31.25 27.50 30.15 29.64 28.56 30.13 30.39 26.93 29.29 25.94 27.36 27.35 26.51 27.60 25.87 25.12 17.71 20.52 16.95 19.66 19.87 18.94 21.16 21.65 21.83 20.09 16.84 20.37 20.28 30.25 30.89 27.81 21.51 22.06 16.54 19.67 20.14
34.66 33.01 29.40 24.83 25.53 27.38 29.16 30.51 30.67 31.34 30.53 31.63 32.13 30.85 28.69 31.22 31.50 30.34 30.28 29.85 29.71 27.15 24.76 22.75 19.14 15.92 14.15 17.47 17.29 17.62 22.14 21.54 19.80 19.13 20.13 15.75 24.53 21.30 20.72 18.36 14.85 18.31 16.75 18.89 19.19
MSLP
1017.85 1017.88 1017.41 1017.18 1016.97 1016.44 1016.25 1015.74 1015.44 1014.95 1014.68 1014.72 1014.41 1014.09 1013.90 1013.49 1013.26 1013.28 1013.55 1013.50 1013.01 1012.68 1012.66 1012.90 1012.76 1012.70 1012.65 1013.06 1013.26 1013.80 1014.87 1015.20 1014.61 1014.39 1014.02 1013.90 1013.76 1013.56 1013.76 1013.73 1013.49 1013.15 1013.14 1013.33 1013.22
1017.87 1017.77 1017.34 1017.16 1016.93 1016.50 1016.18 1015.72 1015.39 1014.94 1014.57 1014.59 1014.36 1014.04 1013.73 1013.70 1013.65 1013.59 1013.37 1012.99 1012.72 1012.54 1012.62 1012.72 1012.82 1012.78 1013.28 1013.44 1013.70 1014.29 1015.15 1014.87 1014.57 1014.48 1014.48 1014.43 1014.48 1014.44 1014.41 1014.39 1014.00 1013.68 1013.49 1013.57 1013.62
1017.97 1017.71 1017.29 1017.13 1016.89 1016.43 1016.06 1015.61 1015.31 1014.91 1014.51 1014.38 1014.23 1013.89 1013.58 1013.75 1013.72 1013.42 1013.17 1012.90 1012.61 1012.48 1012.55 1012.56 1012.70 1012.86 1013.40 1013.64 1014.13 1014.50 1014.80 1014.64 1014.53 1014.61 1014.73 1014.86 1014.98 1014.92 1015.06 1014.92 1014.51 1014.33 1014.15 1014.15 1014.05
1017.95 1017.68 1017.31 1017.05 1016.73 1016.28 1015.86 1015.50 1015.20 1014.86 1014.40 1014.20 1014.05 1013.76 1013.52 1013.66 1013.97 1013.33 1013.08 1012.79 1012.44 1012.37 1012.63 1012.64 1012.96 1013.23 1013.75 1014.03 1014.19 1014.53 1014.55 1014.66 1014.78 1014.86 1014.97 1015.02 1015.02 1015.14 1015.11 1014.51 1014.19 1014.46 1014.61 1014.65 1014.43
1017.85 1017.59 1017.26 1016.99 1016.61 1016.20 1015.75 1015.35 1015.00 1014.59 1014.29 1014.03 1013.87 1013.64 1013.54 1013.69 1013.55 1013.26 1013.02 1012.82 1012.59 1012.76 1012.90 1012.84 1013.13 1013.44 1013.94 1014.21 1014.41 1014.67 1014.79 1014.85 1015.03 1015.16 1015.22 1015.17 1015.23 1015.34 1014.68 1014.16 1014.41 1014.67 1014.76 1014.88 1014.75
1017.75 1017.48 1017.18 1016.82 1016.47 1016.04 1015.57 1015.15 1014.69 1014.28 1014.10 1013.93 1013.77 1013.57 1013.58 1013.82 1013.31 1013.28 1013.14 1012.85 1013.03 1013.04 1013.18 1013.02 1013.18 1013.47 1014.06 1014.51 1014.74 1014.87 1014.99 1015.11 1015.29 1015.41 1015.39 1015.58 1015.49 1015.50 1014.32 1014.16 1014.79 1015.11 1015.03 1014.82 1014.73
1017.61 1017.31 1017.05 1016.66 1016.25 1015.82 1015.43 1014.84 1014.33 1014.01 1013.87 1013.72 1013.65 1013.56 1013.53 1013.37 1013.24 1013.24 1013.19 1013.25 1013.22 1013.15 1013.32 1013.27 1013.21 1013.57 1014.25 1014.86 1015.06 1015.17 1015.40 1015.43 1015.68 1015.90 1016.02 1016.18 1015.67 1015.48 1014.70 1014.65 1015.05 1015.20 1015.02 1014.85 1014.60
1017.45 1017.16 1016.86 1016.54 1016.12 1015.57 1014.93 1014.31 1013.84 1013.58 1013.49 1013.44 1013.42 1013.54 1013.27 1013.04 1013.13 1013.22 1013.24 1013.29 1013.24 1013.11 1013.28 1013.30 1013.33 1013.96 1014.69 1015.23 1015.46 1015.67 1015.95 1016.24 1016.32 1016.46 1016.51 1016.57 1015.86 1014.88 1014.91 1015.15 1015.55 1015.36 1015.30 1014.87 1014.61
1017.35 1017.07 1016.78 1016.35 1015.90 1015.30 1014.50 1013.69 1013.37 1013.09 1013.21 1013.17 1013.38 1013.38 1013.20 1013.02 1013.23 1013.52 1013.43 1013.51 1013.49 1013.38 1013.44 1013.53 1013.91 1015.04 1015.49 1015.74 1016.27 1016.45 1016.80 1017.04 1016.93 1017.28 1017.35 1017.26 1016.31 1015.29 1015.24 1015.40 1015.24 1015.22 1015.07 1014.74 1014.67
1017.13 1016.91 1016.58 1016.25 1015.66 1014.93 1014.04 1013.31 1013.20 1013.34 1013.19 1013.21 1013.28 1013.75 1013.30 1013.47 1013.50 1013.63 1013.59 1013.48 1013.59 1013.58 1013.80 1014.10 1014.88 1015.66 1016.29 1016.44 1016.77 1016.99 1017.37 1017.62 1018.02 1017.86 1017.81 1017.67 1016.62 1015.42 1015.49 1015.44 1014.76 1014.42 1014.42 1014.58 1014.82
1017.26 1016.75 1016.46 1016.10 1015.59 1014.86 1014.03 1013.68 1014.07 1014.30 1013.56 1013.43 1013.41 1013.56 1013.45 1013.72 1013.62 1013.61 1013.79 1013.60 1013.57 1013.81 1014.45 1014.91 1015.55 1016.31 1016.70 1016.67 1016.82 1017.27 1017.81 1018.32 1018.21 1018.29 1018.33 1017.82 1017.02 1015.23 1014.93 1014.80 1014.27 1014.29 1014.32 1014.53 1014.59
1017.40 1016.99 1016.44 1016.10 1015.68 1015.18 1014.90 1016.10 1017.09 1017.50 1015.38 1013.62 1013.45 1013.48 1013.46 1013.63 1013.78 1013.75 1013.85 1013.91 1013.79 1014.37 1014.75 1015.41 1016.06 1016.68 1016.92 1016.97 1017.15 1017.55 1018.27 1018.80 1018.57 1018.68 1019.30 1018.47 1016.47 1015.02 1014.35 1013.90 1013.61 1014.00 1014.48 1014.62 1014.73
1017.51 1017.11 1016.48 1016.25 1015.83 1015.97 1016.36 1016.93 1017.10 1017.12 1016.56 1014.04 1013.49 1013.37 1013.46 1013.66 1013.82 1013.92 1014.03 1013.93 1014.11 1014.78 1015.25 1015.83 1016.63 1016.86 1017.19 1017.34 1017.53 1017.96 1018.58 1019.17 1019.63 1019.49 1019.60 1019.15 1016.54 1014.81 1014.03 1013.74 1013.80 1014.07 1014.42 1014.78 1014.84
1017.56 1017.09 1016.52 1016.28 1016.41 1016.60 1016.69 1016.66 1016.52 1016.81 1016.57 1014.33 1013.53 1013.51 1013.48 1013.63 1014.00 1014.00 1014.10 1014.24 1014.51 1015.07 1015.83 1016.38 1016.78 1017.00 1017.45 1017.59 1017.73 1018.41 1018.88 1019.35 1020.03 1020.80 1021.05 1019.85 1018.35 1015.53 1014.41 1014.08 1014.01 1014.27 1014.49 1014.51 1014.74
1017.70 1017.27 1016.59 1016.32 1016.38 1016.52 1016.48 1016.46 1015.90 1016.92 1016.22 1013.98 1013.60 1013.39 1013.62 1013.97 1014.32 1014.22 1014.23 1014.12 1014.69 1015.44 1016.02 1016.61 1016.91 1017.15 1017.55 1017.76 1017.99 1018.88 1019.30 1019.86 1020.71 1021.40 1021.60 1020.63 1019.94 1015.61 1015.01 1014.36 1013.81 1014.10 1014.40 1014.63 1014.78
1017.75 1017.39 1017.02 1016.67 1016.54 1016.65 1016.55 1016.32 1015.72 1017.24 1015.09 1014.06 1013.87 1013.74 1013.84 1014.08 1014.25 1014.42 1014.45 1014.46 1014.99 1015.64 1016.18 1016.88 1017.08 1017.28 1017.61 1018.15 1018.63 1019.30 1019.96 1020.74 1021.72 1022.26 1022.31 1021.15 1020.29 1016.35 1014.96 1013.49 1013.28 1013.51 1014.19 1014.83 1014.94
1017.76 1016.97 1016.81 1016.53 1016.60 1016.60 1016.77 1016.86 1017.28 1016.77 1014.81 1014.30 1014.28 1014.26 1014.39 1014.50 1014.52 1014.69 1014.78 1014.99 1015.13 1015.96 1016.51 1017.13 1017.38 1017.67 1017.89 1018.66 1019.29 1019.70 1020.60 1022.74 1023.26 1023.47 1022.77 1021.55 1020.68 1015.70 1013.62 1013.17 1013.13 1013.44 1014.22 1014.81 1015.07
1017.73 1016.57 1016.27 1016.55 1016.56 1016.78 1016.90 1017.42 1016.78 1015.27 1015.35 1014.89 1014.34 1014.64 1015.12 1015.02 1014.91 1015.02 1015.11 1015.25 1015.33 1015.58 1016.41 1016.82 1017.84 1017.88 1018.18 1018.63 1019.28 1020.22 1020.88 1022.36 1023.89 1024.80 1023.78 1022.08 1019.66 1014.70 1013.17 1012.89 1013.10 1013.56 1014.23 1014.92 1014.80
1017.77 1016.82 1016.57 1016.53 1016.57 1016.60 1016.76 1016.99 1014.93 1014.29 1014.29 1015.50 1015.48 1015.51 1015.59 1015.53 1015.83 1015.25 1015.37 1015.04 1014.69 1015.10 1015.66 1016.63 1017.53 1018.23 1018.60 1018.93 1019.81 1020.71 1021.55 1022.33 1023.86 1026.18 1024.81 1021.52 1018.24 1014.15 1012.93 1012.80 1013.33 1013.93 1014.38 1014.75 1014.71
1018.16 1017.15 1016.34 1016.25 1016.46 1016.47 1016.42 1015.31 1014.46 1013.87 1014.01 1014.50 1015.58 1015.95 1016.22 1015.75 1016.27 1015.70 1014.94 1014.55 1014.74 1015.00 1015.19 1015.69 1017.17 1018.52 1019.07 1019.36 1020.07 1020.46 1021.58 1022.87 1023.89 1024.94 1024.74 1021.44 1019.23 1015.67 1013.28 1012.99 1013.57 1014.22 1014.64 1014.87 1014.62
1018.30 1017.12 1016.25 1016.28 1016.36 1016.37 1015.29 1014.65 1014.01 1013.87 1013.65 1014.52 1015.16 1015.71 1015.98 1016.54 1016.45 1016.08 1015.34 1014.90 1014.96 1015.38 1015.49 1015.83 1016.59 1019.14 1019.26 1019.34 1019.60 1021.02 1021.64 1022.79 1023.45 1024.17 1024.32 1022.88 1017.61 1013.66 1013.18 1013.15 1013.64 1014.29 1014.63 1014.85 1014.76
1018.26 1017.22 1016.45 1016.51 1016.65 1015.66 1014.82 1013.91 1013.41 1013.82 1014.06 1014.41 1014.65 1015.23 1015.73 1016.09 1016.49 1016.50 1015.55 1015.14 1015.11 1015.27 1015.79 1015.99 1016.56 1018.32 1018.65 1018.90 1019.20 1019.71 1020.57 1021.56 1022.89 1024.39 1024.31 1023.08 1017.01 1013.09 1012.95 1013.18 1013.53 1013.98 1014.46 1014.50 1014.55
1018.62 1017.12 1016.58 1016.56 1015.40 1014.61 1014.45 1013.73 1013.42 1013.77 1014.03 1014.24 1014.38 1014.92 1015.78 1016.02 1016.51 1016.34 1015.78 1015.69 1015.54 1015.54 1015.61 1016.08 1016.77 1018.36 1019.02 1019.41 1019.35 1019.54 1019.98 1020.95 1022.03 1022.90 1023.35 1022.28 1016.25 1012.95 1013.08 1013.16 1013.52 1013.92 1014.35 1014.30 1014.46
1019.11 1017.19 1016.55 1015.91 1014.64 1014.16 1013.80 1013.64 1013.49 1013.34 1013.55 1013.72 1014.25 1015.12 1015.85 1016.34 1016.27 1016.41 1016.35 1016.21 1016.03 1016.04 1015.94 1016.25 1017.03 1017.52 1017.64 1017.41 1017.64 1018.82 1019.20 1020.25 1021.09 1022.46 1021.66 1018.90 1015.39 1012.56 1012.78 1013.25 1013.57 1014.00 1014.24 1014.35 1014.65
1018.42 1016.89 1015.84 1014.96 1014.32 1014.02 1013.38 1012.45 1012.89 1013.08 1013.12 1013.63 1014.16 1014.52 1015.09 1015.95 1016.46 1016.38 1016.54 1016.64 1016.66 1016.56 1016.72 1017.06 1017.75 1017.98 1017.61 1017.65 1017.61 1017.65 1018.08 1019.00 1019.81 1019.31 1019.26 1016.09 1015.76 1012.86 1012.95 1013.01 1013.30 1013.84 1013.95 1014.31 1014.49
1017.06 1016.93 1016.16 1015.14 1014.04 1013.65 1013.11 1011.57 1011.69 1012.17 1012.23 1012.86 1013.42 1013.92 1014.64 1014.98 1014.85 1015.49 1015.92 1016.52 1016.41 1017.18 1017.37 1017.78 1018.35 1018.68 1018.25 1017.85 1017.67 1017.38 1016.81 1017.28 1017.62 1017.91 1017.49 1016.26 1014.96 1011.71 1011.95 1012.76 1013.40 1013.73 1014.11 1014.38 1014.24
1016.44 1016.05 1016.53 1015.29 1014.69 1013.85 1011.42 1011.32 1011.44 1011.70 1012.12 1011.99 1012.80 1013.37 1014.31 1014.08 1014.82 1015.45 1015.59 1016.00 1016.49 1016.99 1017.77 1018.44 1018.93 1019.54 1019.14 1018.37 1017.65 1016.20 1013.64 1014.55 1014.98 1015.06 1015.13 1015.40 1012.06 1011.74 1012.06 1012.85 1013.38 1013.41 1013.97 1014.04 1014.10
Wind_Speed
14 15 14 15 16 15 15 14 14 14 13 13 12 10 11 12 8 5 4 4 6 12 6 2 1 1 3 3 3 3 4 1 3 4 2 5 5 2 2 2 5 4 1 1 4
14 14 15 16 16 16 15 15 14 13 13 12 11 10 9 10 2 2 3 10 8 9 2 3 3 3 4 2 3 5 4 7 1 1 1 2 3 4 6 7 4 4 3 5 6
14 14 15 16 17 17 16 16 15 13 13 12 11 10 9 4 2 2 6 11 10 4 2 0 3 2 4 2 1 3 5 3 1 1 2 1 3 1 1 4 8 5 4 6 5
13 14 15 16 17 17 17 17 16 14 13 11 10 10 9 1 1 2 11 11 10 3 5 4 2 3 4 5 2 3 1 1 1 1 1 3 1 4 7 9 2 5 6 5 6
12 13 14 16 17 18 18 17 17 15 13 10 9 9 2 2 3 4 10 9 3 2 2 4 3 3 6 4 3 2 1 1 1 4 4 2 6 6 9 11 6 6 4 6 8
12 13 14 15 17 18 19 19 18 16 13 9 7 6 2 1 1 5 7 4 5 3 1 2 5 3 5 3 3 2 0 3 2 3 2 3 4 1 6 2 3 5 8 9 8
10 11 14 16 17 17 18 19 18 17 14 8 5 1 2 3 1 4 6 2 3 1 3 1 4 4 4 4 1 1 1 1 4 5 3 4 4 8 4 3 5 9 10 9 9
10 11 13 15 17 18 18 19 20 16 11 6 2 1 3 1 2 4 4 2 4 3 3 3 3 7 4 3 5 4 4 2 2 7 2 3 10 2 3 6 10 11 8 8 8
10 10 12 14 17 18 19 19 14 5 4 2 2 2 3 1 3 3 3 1 3 2 3 3 6 4 4 5 3 6 2 2 8 3 4 4 9 5 3 8 10 5 5 5 4
12 11 11 13 17 19 19 12 7 3 2 1 2 2 1 1 2 2 2 2 3 2 2 6 5 4 4 4 4 2 1 2 5 4 5 6 17 14 7 7 11 9 6 3 5
19 12 11 12 17 19 9 5 7 3 6 3 2 1 1 4 1 3 2 1 2 7 2 3 5 2 4 3 4 6 3 2 5 3 6 5 11 21 9 7 7 5 2 4 5
18 20 11 13 17 14 4 6 2 3 8 2 1 1 1 2 0 1 2 3 2 3 1 5 1 3 5 5 5 4 2 4 5 1 1 7 21 14 6 5 3 6 6 5 1
18 20 12 12 10 5 4 3 3 0 3 3 2 2 2 2 1 1 2 2 4 4 2 5 2 4 2 2 3 3 3 2 1 7 3 8 9 6 2 1 2 2 4 3 3
18 19 15 11 1 1 1 3 2 4 3 4 1 1 2 2 1 1 2 1 3 5 6 3 3 4 1 1 3 1 4 3 3 4 4 4 7 6 4 5 4 5 6 3 4
18 17 12 4 1 2 2 3 4 2 3 0 1 1 2 3 3 2 2 1 6 4 4 3 6 4 2 2 3 2 2 3 2 1 4 2 4 10 3 7 9 9 8 4 4
18 20 11 1 1 1 2 4 4 3 11 2 1 2 3 0 0 1 1 5 3 4 4 3 1 1 2 3 2 4 4 5 4 2 4 3 4 9 5 7 3 4 7 2 7
23 24 7 1 2 2 3 2 3 4 5 3 1 2 1 4 2 4 3 3 5 5 4 1 2 1 2 3 1 3 5 5 7 6 6 4 1 14 6 6 4 7 6 5 7
24 14 2 1 3 2 3 4 5 5 6 3 4 2 1 2 3 3 3 3 3 3 4 6 4 5 3 1 4 2 5 8 6 3 5 3 8 9 5 1 5 6 4 6 7
22 3 2 3 4 2 3 6 8 7 10 1 3 1 3 2 2 4 6 5 7 10 8 6 2 2 4 2 2 3 1 2 9 2 4 3 8 12 6 7 6 7 3 8 8
6 5 3 7 3 3 2 10 5 2 4 3 9 4 4 2 3 5 7 3 5 3 0 5 5 1 2 1 5 2 5 4 4 1 5 6 7 8 5 3 6 8 6 9 7
3 4 2 2 3 1 8 7 5 3 5 7 4 4 5 2 2 3 4 0 2 4 2 4 4 1 2 6 7 2 1 4 4 3 6 2 9 9 8 5 8 9 8 7 8
3 6 2 1 3 2 8 7 5 5 1 2 4 4 7 9 4 5 4 2 2 6 7 4 5 4 3 0 1 2 5 5 6 5 1 3 13 4 7 7 7 8 8 8 6
4 4 1 2 10 13 2 3 4 6 6 7 7 4 2 6 3 2 2 2 2 3 6 5 1 3 4 2 3 4 5 4 5 3 7 7 11 2 3 5 7 8 9 8 6
3 5 3 3 1 5 18 11 5 5 4 3 5 6 4 3 2 3 3 1 1 1 4 4 2 6 7 4 5 6 6 7 6 5 5 12 11 21 14 8 8 8 9 9 7
5 5 3 5 9 8 6 9 16 9 5 5 2 5 7 5 4 6 3 1 2 3 3 3 4 2 3 4 2 3 5 12 11 8 9 13 11 20 9 9 9 7 5 5 8
5 4 4 6 4 17 18 12 21 4 11 6 4 14 11 8 10 10 9 5 5 1 4 1 2 2 5 1 5 6 10 13 18 7 14 14 23 26 22 9 6 10 6 8 8
3 1 3 6 9 9 18 24 18 8 8 6 15 7 11 11 7 3 3 5 3 7 5 5 5 3 6 3 4 7 12 18 6 6 10 10 19 2 7 5 6 9 8 10 7
Wind_Direction
353 345 346 345 342 342 337 338 339 344 343 335 334 339 340 343 338 28 31 269 314 313 337 272 55 56 37 85 69 126 67 235 255 163 273 359 20 7 318 334 337 326 81 125 334
348 345 345 340 338 336 334 335 335 339 341 335 331 336 345 341 11 11 255 325 320 321 357 131 120 111 49 59 36 91 124 217 235 163 103 349 22 334 5 1 312 333 303 1 347
342 340 342 337 335 333 333 332 330 334 336 335 329 333 341 343 30 245 326 330 329 334 188 85 112 91 80 80 90 160 182 208 245 113 70 339 269 210 176 276 227 237 272 317 312
333 336 337 333 333 332 333 330 326 327 333 331 328 331 334 77 228 277 336 336 342 92 131 121 88 76 112 148 151 148 185 140 73 88 185 243 243 260 192 228 190 252 277 293 307
323 329 332 331 332 329 329 327 322 324 326 326 329 335 40 37 276 338 340 341 24 69 72 135 109 125 140 136 116 149 235 324 17 286 255 283 240 235 246 247 290 302 281 292 292
316 320 325 329 328 327 326 323 321 319 318 315 322 343 89 345 147 9 345 8 23 56 53 56 154 149 107 107 141 142 37 296 301 349 291 298 286 103 283 78 218 307 297 309 280
310 316 319 325 322 322 320 320 317 311 304 293 312 72 100 209 89 351 11 26 356 41 111 99 133 91 123 113 141 94 160 22 29 347 332 315 271 230 251 50 336 306 305 308 296
310 313 313 315 316 317 320 321 313 301 284 267 300 118 223 143 174 36 347 19 360 19 94 140 101 98 73 118 33 56 56 11 8 7 12 41 276 294 151 34 299 286 286 300 319
301 305 308 313 314 314 319 323 315 320 229 219 117 149 274 161 61 317 35 48 316 31 37 73 62 85 45 102 38 17 228 321 323 64 337 70 278 278 258 337 291 229 278 346 344
308 309 309 314 319 322 325 326 320 307 98 120 90 27 33 255 320 341 351 55 99 108 46 44 51 78 41 73 215 200 356 298 253 322 7 286 270 279 273 284 288 313 323 350 114
344 309 314 325 328 331 349 10 17 271 39 237 165 235 23 302 279 33 355 67 112 54 92 17 69 212 143 111 106 108 103 283 270 324 357 266 274 284 282 256 268 267 302 129 158
346 338 316 325 332 340 42 63 102 247 313 216 199 241 168 119 44 360 336 149 99 127 126 33 148 140 126 99 102 90 99 272 277 339 336 303 290 277 263 244 210 168 151 162 31
349 344 309 315 333 19 79 126 293 3 257 280 206 183 161 136 206 245 358 159 116 119 127 146 147 146 126 124 107 132 166 196 229 334 235 295 291 341 32 95 83 152 151 146 11
341 332 318 316 350 199 19 247 131 92 14 241 228 19 81 123 260 37 10 131 41 147 135 116 145 135 117 167 127 189 145 81 335 6 280 18 278 302 295 286 227 200 199 176 346
341 332 322 319 230 172 162 248 136 85 353 63 210 86 89 151 121 8 341 8 147 136 132 197 154 146 168 256 160 155 78 74 74 114 17 342 63 272 343 268 240 222 219 220 310
334 330 320 267 66 70 314 267 54 11 230 290 90 154 103 99 91 120 28 49 134 103 46 99 46 102 121 81 70 142 91 52 48 46 18 264 108 277 208 217 228 200 203 257 324
331 316 280 219 223 127 45 328 73 218 334 258 221 121 279 181 200 191 172 161 156 114 193 76 149 107 125 108 16 89 71 342 352 8 221 359 308 247 259 244 227 206 186 297 286
329 323 142 270 160 146 108 50 182 183 265 337 92 81 213 169 222 171 137 223 230 105 117 154 296 162 154 174 191 156 152 154 214 241 278 331 237 253 219 275 240 157 171 270 297
329 304 240 179 144 107 120 241 216 199 149 232 41 193 245 237 268 172 201 219 200 179 171 138 173 86 46 71 75 203 124 136 101 54 40 251 286 288 245 253 181 215 308 314 297
321 281 224 148 150 122 135 224 238 144 117 104 174 170 239 224 185 228 171 213 181 184 109 188 95 34 146 100 51 138 142 78 0 95 297 284 277 246 293 275 233 244 255 300 315
293 268 113 144 163 122 209 217 207 221 137 173 190 138 172 253 233 240 227 292 130 132 92 138 105 79 87 200 177 133 358 46 111 119 170 280 262 217 224 232 237 232 241 286 295
254 260 151 192 167 200 220 185 175 165 158 167 129 170 183 171 195 246 231 222 155 165 162 184 129 161 194 16 192 169 180 157 123 229 158 140 270 195 226 247 226 229 259 278 270
273 283 208 237 221 218 173 239 198 151 193 185 165 158 152 166 221 228 271 358 170 160 152 191 278 71 350 12 2 220 185 121 115 89 198 138 262 170 243 220 235 241 271 288 288
274 271 192 228 312 228 220 225 219 207 185 181 125 103 126 176 243 183 258 47 352 157 103 101 113 182 190 167 128 190 181 170 135 130 183 230 282 283 277 261 257 260 267 278 270
192 254 241 214 224 225 204 185 201 194 210 163 123 198 166 169 165 213 209 114 351 174 69 136 209 185 246 220 195 218 180 177 203 189 187 268 222 260 265 267 271 249 256 267 273
192 219 324 314 289 202 222 217 214 192 162 198 181 187 192 173 191 185 155 179 197 107 156 81 224 141 291 298 183 257 214 197 218 219 260 265 284 271 272 277 268 268 278 273 282
234 211 189 278 306 280 218 225 234 148 222 176 198 142 191 220 102 48 93 118 181 157 166 156 142 119 263 358 313 284 225 196 185 192 193 198 235 344 278 250 252 260 230 248 246